Date String (YYYY-MM-DD hh:mm:ss) UTC,Instrument flags,Ambient pressure (hPa),Sample flow (lpm),Bypass flow (lpm),Sample temperature (°C),Ambient temperature (°C),ASC tube jacket temperature (°C),LED temperature (°C),Box temperature (°C),Sample RH (%),Span deviation,Mass concentration (μg/m³),Mass concentration (μg/m³),Mass concentration (μg/m³)
DateTimeUTC,F1_M11,P_M11,Q1_M11,Q2_M11,T1_M11,T2_M11,T3_M11,T4_M11,T5_M11,U1_M11,ZSPAN_M11,X2_M11,X0_M11,X1_M11
2021-12-30 03:00:00,,0814.7,5.00,0.00,22.4,21.7,00.0,31.5,24.0,06.7,0000.0,0004.46,0013.83,0002.79
2021-12-30 03:01:00,,0815.0,4.99,0.00,22.4,21.6,00.0,31.4,24.0,06.7,0000.0,0004.41,0013.55,0002.77
2021-12-30 03:02:00,,0814.9,5.01,0.00,22.3,21.6,00.0,31.4,23.9,06.7,0000.0,0004.37,0014.42,0002.75
2021-12-30 03:03:00,,0815.2,4.99,0.00,22.3,21.5,00.0,31.4,23.9,06.7,0000.0,0004.42,0014.74,0002.76
2021-12-30 03:04:00,,0815.2,5.01,0.00,22.3,21.5,00.0,31.4,23.9,06.7,0000.0,0004.45,0014.54,0002.75
2021-12-30 03:05:00,,0814.7,4.99,0.00,22.3,21.5,00.0,31.4,23.9,06.7,0000.0,0004.41,0014.68,0002.73
2021-12-30 03:06:00,,0814.9,4.99,0.00,22.3,21.9,00.0,31.4,24.0,06.7,0000.0,0004.40,0014.88,0002.73
2021-12-30 03:07:00,,0815.1,5.00,0.00,22.4,22.6,00.0,31.4,24.3,06.7,0000.0,0004.39,0015.12,0002.72
2021-12-30 03:08:00,,0814.9,5.01,0.00,22.6,23.1,00.0,31.5,24.5,06.6,0000.0,0004.31,0015.20,0002.66
2021-12-30 03:09:00,,0814.7,5.00,0.00,22.6,22.9,00.0,31.5,24.5,06.6,0000.0,0004.30,0015.24,0002.66
2021-12-30 03:10:00,,0814.7,5.01,0.00,22.6,22.7,00.0,31.5,24.4,06.6,0000.0,0004.32,0015.05,0002.65
2021-12-30 03:11:00,,0814.8,4.99,0.00,22.6,22.5,00.0,31.5,24.3,06.6,0000.0,0004.39,0015.35,0002.65
2021-12-30 03:12:00,,0814.7,5.01,0.00,22.6,22.4,00.0,31.5,24.3,06.6,0000.0,0004.37,0016.35,0002.65
2021-12-30 03:13:00,,0815.0,5.00,0.00,22.6,22.2,00.0,31.5,24.2,06.6,0000.0,0004.37,0016.12,0002.65
2021-12-30 03:14:00,,0814.9,4.99,0.00,22.6,22.1,00.0,31.5,24.2,06.6,0000.0,0004.38,0016.49,0002.65
2021-12-30 03:15:00,,0815.2,5.01,0.00,22.5,22.0,00.0,31.5,24.2,06.6,0000.0,0004.37,0017.11,0002.66
2021-12-30 03:16:00,,0814.9,5.00,0.00,22.5,21.9,00.0,31.5,24.2,06.6,0000.0,0004.37,0016.37,0002.68
2021-12-30 03:17:00,,0815.0,4.99,0.00,22.5,21.8,00.0,31.5,24.2,06.6,0000.0,0004.38,0016.58,0002.69
2021-12-30 03:18:00,,0814.8,5.00,0.00,22.5,21.8,00.0,31.5,24.1,06.6,0000.0,0004.45,0017.83,0002.72
2021-12-30 03:19:00,,0814.8,5.01,0.00,22.5,21.7,00.0,31.5,24.1,06.7,0000.0,0004.50,0018.39,0002.74
2021-12-30 03:20:00,,0814.8,4.99,0.00,22.4,21.7,00.0,31.5,24.1,06.6,0000.0,0004.56,0020.23,0002.74
2021-12-30 03:21:00,,0814.9,4.99,0.00,22.4,21.6,00.0,31.4,24.1,06.6,0001.0,0004.57,0020.78,0002.74
2021-12-30 03:22:00,,0814.9,5.01,0.00,22.4,21.6,00.0,31.4,24.1,06.6,0002.2,0004.51,0020.06,0002.73
2021-12-30 03:23:00,,0814.8,5.01,0.00,22.4,21.6,00.0,31.4,24.0,06.6,0000.0,0004.53,0020.74,0002.74
2021-12-30 03:24:00,,0814.8,4.99,0.00,22.4,21.6,00.0,31.4,24.0,06.6,0000.0,0004.53,0020.86,0002.73
2021-12-30 03:25:00,,0814.8,5.00,0.00,22.4,21.6,00.0,31.4,24.0,06.6,0000.0,0004.52,0020.39,0002.73
2021-12-30 03:26:00,,0814.8,5.02,0.00,22.4,21.6,00.0,31.4,24.0,06.6,0000.0,0004.50,0019.17,0002.69
2021-12-30 03:27:00,,0814.8,5.00,0.00,22.4,22.1,00.0,31.4,24.2,06.5,0000.0,0004.46,0019.04,0002.66
2021-12-30 03:28:00,,0814.9,5.00,0.00,22.5,22.9,00.0,31.5,24.4,06.5,0000.0,0004.46,0018.95,0002.63
2021-12-30 03:29:00,,0814.9,5.00,0.00,22.6,23.2,00.0,31.5,24.6,06.5,0000.0,0004.38,0017.60,0002.58
2021-12-30 03:30:00,,0814.9,5.00,0.00,22.7,23.0,00.0,31.5,24.6,06.5,0000.0,0004.34,0017.18,0002.54
2021-12-30 03:31:00,,0814.9,5.02,0.00,22.7,22.8,00.0,31.5,24.5,06.5,0000.0,0004.33,0016.31,0002.53
2021-12-30 03:32:00,,0814.9,4.99,0.00,22.7,22.6,00.0,31.5,24.5,06.4,0000.0,0004.30,0016.12,0002.51
2021-12-30 03:33:00,,0814.9,4.99,0.00,22.7,22.5,00.0,31.5,24.4,06.4,0000.0,0004.32,0016.50,0002.50
2021-12-30 03:34:00,,0814.9,5.01,0.00,22.7,22.3,00.0,31.6,24.4,06.4,0000.0,0004.34,0016.56,0002.51
2021-12-30 03:35:00,,0814.9,4.99,0.00,22.7,22.2,00.0,31.6,24.4,06.4,0000.0,0004.36,0015.47,0002.50
2021-12-30 03:36:00,,0814.8,5.01,0.00,22.6,22.1,00.0,31.6,24.3,06.4,0000.0,0004.31,0014.48,0002.49
2021-12-30 03:37:00,,0814.8,5.00,0.00,22.6,22.0,00.0,31.5,24.3,06.4,0000.0,0004.30,0014.65,0002.51
2021-12-30 03:38:00,,0815.0,4.98,0.00,22.6,21.9,00.0,31.5,24.3,06.5,0000.0,0004.35,0016.34,0002.54
2021-12-30 03:39:00,,0815.1,5.02,0.00,22.6,21.9,00.0,31.5,24.3,06.5,0000.0,0004.38,0017.46,0002.55
2021-12-30 03:40:00,,0815.0,5.00,0.00,22.6,21.8,00.0,31.5,24.3,06.5,0000.0,0004.42,0018.14,0002.57
2021-12-30 03:41:00,,0814.9,5.01,0.00,22.6,21.8,00.0,31.5,24.2,06.5,0000.0,0004.43,0017.99,0002.59
2021-12-30 03:42:00,,0814.7,4.99,0.00,22.5,21.7,00.0,31.5,24.2,06.5,0000.0,0004.45,0018.57,0002.63
2021-12-30 03:43:00,,0815.0,5.01,0.00,22.5,21.7,00.0,31.5,24.2,06.5,0000.0,0004.43,0018.26,0002.66
2021-12-30 03:44:00,,0814.9,5.00,0.00,22.5,21.7,00.0,31.5,24.1,06.5,0000.0,0004.49,0018.63,0002.68
2021-12-30 03:45:00,,0815.2,5.00,0.00,22.5,21.6,00.0,31.5,24.1,06.6,0000.0,0004.54,0017.95,0002.69
2021-12-30 03:46:00,,0815.1,5.00,0.00,22.4,21.6,00.0,31.5,24.1,06.6,0000.0,0004.51,0017.85,0002.70
2021-12-30 03:47:00,,0815.1,5.01,0.00,22.4,21.6,00.0,31.5,24.1,06.6,0000.0,0004.57,0018.68,0002.71
2021-12-30 03:48:00,,0815.2,4.99,0.00,22.4,21.7,00.0,31.5,24.1,06.6,0000.0,0004.61,0019.05,0002.72
2021-12-30 03:49:00,,0815.0,5.01,0.00,22.5,22.2,00.0,31.5,24.2,06.6,0000.0,0004.64,0017.98,0002.72
2021-12-30 03:50:00,,0815.0,4.99,0.00,22.6,23.0,00.0,31.5,24.5,06.6,0000.0,0004.74,0017.48,0002.75
2021-12-30 03:51:00,,0815.2,4.99,0.00,22.7,23.2,00.0,31.6,24.6,06.5,0000.0,0004.80,0017.20,0002.79
2021-12-30 03:52:00,,0815.1,5.00,0.00,22.8,23.0,00.0,31.6,24.6,06.5,0000.0,0004.88,0017.05,0002.82
2021-12-30 03:53:00,,0815.1,5.00,0.00,22.8,22.8,00.0,31.6,24.6,06.5,0000.0,0004.95,0017.36,0002.84
2021-12-30 03:54:00,,0815.0,4.99,0.00,22.7,22.6,00.0,31.6,24.5,06.5,0000.0,0005.04,0017.16,0002.87
2021-12-30 03:55:00,,0815.0,4.99,0.00,22.7,22.4,00.0,31.6,24.4,06.5,0000.0,0005.08,0017.53,0002.92
2021-12-30 03:56:00,,0814.9,5.00,0.00,22.7,22.3,00.0,31.6,24.4,06.5,0000.0,0005.05,0017.52,0002.95
2021-12-30 03:57:00,,0814.8,5.00,0.00,22.7,22.2,00.0,31.6,24.4,06.5,0000.0,0005.10,0018.43,0002.98
2021-12-30 03:58:00,,0814.6,5.01,0.00,22.7,22.1,00.0,31.6,24.3,06.5,0000.0,0005.17,0019.76,0003.03
2021-12-30 03:59:00,,0815.0,4.98,0.00,22.6,22.0,00.0,31.6,24.2,06.5,0000.0,0005.25,0020.75,0003.09
